sat.trackr.live / text

‹ back to catalog

STARLINK-3832

NORAD 52646 · 2022-052BA

PAYLOAD ACTIVE UNKNOWN

§ Identity

Operator
Country
US
Launch date
2022-05-14
Launch site
AFETR
Launch vehicle
Mass (kg)
RCS (m²)

Purposes: comms

External: N2YO · Heavens-Above · Gunter

§ Orbital elements

Epoch: 2026-09-20T04:31:59.267424Z

Period
93.90 min
Inclination
53.1591°
Eccentricity
0.0001221
Mean motion
15.33547051 rev/d
Perigee alt
464.4 km
Apogee alt
466.1 km
Semi-major
6,843.4 km
B*
2.9143e-5
RAAN
93.2334°
Arg perigee
93.1008°
Mean anomaly
267.0134°
Rev number
24,067

§ Raw data

STARLINK-38321 52646U 22052BA  26263.18888041  .00000586  00000+0  29143-4 0  99922 52646  53.1591  93.2334 0001221  93.1008 267.0134 15.33547051240676

JSON: /api/v1/satellites/52646 · /tle

For live sub-satellite position, see the globe view (requires WebGL).

§ Visibility from observer

Set your observer location to see the next 7 days of passes ≥ 10°. The values pass through the URL so the page stays shareable.

No JS? Fill the form by hand. The geolocation button needs JavaScript.